[[{"header":{"parameterUnit":"m.s-1","parameterCategory":1,"la1":30.2991,"la2":30.254,"lo1":-89.0895,"lo2":-89.0444,"dy":0.0017,"dx":0.0017,"nx":28,"ny":28,"refTime":"2024-10-02T03:00:00:Z","depth":0,"parameterNumber":2,"parameterNumberName":"U-component_of_WINDS"},"data":[0,0,0,0,0,0,0,0,0,0,0,0,0,0,0,0,0,0,0,0,0,0,0,0,0,0,0,0,0,0,0,0,0,0,0,0,0,0,0,0,0,0,0,0,0,0,0,0,0,0,0,0,0,0,0,0,0,0,-3.1855,-3.1855,0,-3.1817,-3.1816,-3.1816,-3.1722,-3.172,-3.1718,-3.1716,-3.1675,-3.1676,-3.1677,0,0,0,0,0,0,0,0,0,0,0,0,0,-3.185,-3.1851,-3.1856,-3.1855,-3.1855,-3.1817,-3.1816,-3.1816,-3.1723,-3.172,-3.1718,-3.1716,-3.1675,-3.1676,-3.1677,0,0,0,0,0,0,0,0,0,0,0,0,0,-3.1836,-3.1851,-3.1856,-3.1804,-3.1799,-3.1817,-3.1816,-3.1815,-3.1723,-3.172,-3.1717,-3.1714,-3.1675,-3.1676,-3.1677,-3.1742,0,0,-3.168,-3.1681,0,0,0,0,0,0,0,0,-3.1837,-3.1836,-3.1812,-3.1807,-3.1802,-3.1771,-3.1799,-3.1791,-3.1724,-3.1752,-3.1716,-3.1713,-3.1709,-3.1708,-3.1707,-3.174,-3.1738,-3.168,-3.1681,-3.1681,-3.1682,0,0,0,0,0,0,0,-3.1838,-3.1837,-3.184,-3.1812,-3.1805,-3.1782,-3.1777,-3.1797,-3.1747,-3.1749,-3.1742,-3.1739,-3.1706,-3.1706,-3.1705,-3.1738,-3.168,-3.1681,-3.1682,-3.1682,-3.1825,-3.1828,0,0,0,0,0,0,-3.1846,-3.1839,-3.1841,-3.1839,-3.1812,-3.1785,-3.1779,-3.1784,-3.1747,-3.1738,-3.1741,-3.1735,-3.1705,-3.1704,-3.1703,-3.1778,-3.1681,-3.1682,-3.1683,-3.1822,-3.1826,-3.1829,0,0,0,0,0,0,-3.1847,-3.1848,-3.1843,-3.1837,-3.1835,-3.1788,-3.1794,-3.1785,-3.1784,-3.1741,-3.1732,-3.175,-3.1703,-3.1702,-3.1734,-3.1775,-3.1683,-3.1684,-3.1818,-3.1823,-3.1827,-3.1928,0,0,0,0,0,0,-3.1847,-3.1848,-3.1872,-3.1838,-3.1835,-3.1874,-3.1797,-3.1786,-3.1786,-3.1777,-3.1747,-3.1739,-3.1701,-3.1733,-3.1735,-3.1775,-3.1685,-3.1814,-3.182,-3.1826,-3.1921,-3.1936,-3.1949,0,0,0,0,0,-3.1847,-3.1901,-3.1874,-3.1875,-3.1864,-3.1877,-3.1875,-3.183,-3.179,-3.1814,-3.1787,-3.174,-3.1771,-3.1737,-3.1738,-3.178,-3.1811,-3.1819,-3.1825,-3.1915,-3.1933,-3.1948,0,0,0,0,0,0,-3.194,-3.1896,-3.1865,-3.1909,-3.1898,-3.1861,-3.1889,-3.185,-3.1849,-3.184,-3.1784,-3.1778,-3.1818,-3.1802,-3.1765,-3.1842,-3.1784,-3.1791,-3.1851,-3.1868,-3.1881,-3.1884,-3.1686,0,0,0,0,0,-3.1966,-3.198,-3.194,-3.1983,-3.1979,-3.1936,-3.1939,-3.1906,-3.1891,-3.1886,-3.1861,-3.1848,-3.1855,-3.186,-3.1864,-3.1919,-3.1911,-3.1948,-3.1962,-3.1974,-3.1981,-3.201,-3.2026,-3.1852,-3.1852,-3.1852,0,0,-3.2019,-3.1996,-3.2008,-3.2002,-3.1988,-3.2005,-3.1932,-3.1951,-3.1963,-3.1888,-3.1917,-3.1899,-3.1882,-3.1926,-3.1944,-3.1913,-3.2028,-3.1983,-3.1992,-3.1993,-3.2019,-3.2036,-3.205,-3.1857,-3.1856,-3.1856,0,0,-3.2124,-3.2108,-3.2143,-3.2132,-3.2114,-3.2085,-3.2094,-3.2064,-3.2049,-3.2078,-3.2023,-3.2036,-3.2049,-3.2039,-3.2036,-3.2141,-3.2098,-3.2144,-3.2216,-3.2245,-3.2259,-3.2271,-3.2309,-3.2324,-3.2152,-3.2152,-3.2152,0,-3.2191,-3.2213,-3.2166,-3.219,-3.2189,-3.2124,-3.216,-3.2152,-3.2136,-3.2137,-3.2103,-3.212,-3.2103,-3.2145,-3.2171,-3.217,-3.2179,-3.2147,-3.2261,-3.2272,-3.2283,-3.2319,-3.2333,-3.2157,-3.2157,-3.2156,-3.2156,0,-3.2299,-3.2315,-3.2346,-3.2334,-3.2336,-3.2366,-3.2324,-3.2333,-3.23,-3.2276,-3.2307,-3.2285,-3.2285,-3.2292,-3.226,-3.233,-3.2312,-3.2271,-3.2211,-3.2306,-3.2339,-3.2352,-3.2166,-3.2164,-3.2162,-3.216,0,0,-3.2458,-3.2422,-3.2434,-3.2429,-3.2405,-3.2417,-3.2445,-3.2445,-3.2455,-3.2447,-3.2469,-3.2483,-3.2445,-3.2442,-3.2408,-3.2434,-3.2521,-3.2389,-3.2388,-3.2415,-3.2599,-3.263,-3.2647,-3.2493,-3.2495,-3.2497,-3.26,0,-3.2557,-3.2603,-3.2562,-3.2616,-3.2631,-3.2571,-3.2596,-3.2585,-3.2563,-3.2573,-3.2549,-3.256,-3.2509,-3.2507,-3.253,-3.2505,-3.2557,-3.2497,-3.2513,-3.2515,-3.252,-3.2664,-3.2696,-3.2794,-3.2613,-3.2615,-3.2617,0,-3.2678,-3.2678,-3.2733,-3.2709,-3.2714,-3.2736,-3.2735,-3.2745,-3.2732,-3.2715,-3.2713,-3.2673,-3.2699,-3.2642,-3.2678,-3.2639,-3.2643,-3.2633,-3.2635,-3.2635,-3.2571,-3.2667,-3.2825,-3.284,-3.2636,-3.2635,-3.2633,0,-3.279,-3.2803,-3.2838,-3.2836,-3.2808,-3.2826,-3.2815,-3.2799,-3.2803,-3.2802,-3.2804,-3.2806,-3.2807,-3.281,-3.2772,-3.2733,-3.2813,-3.2752,-3.28,-3.2801,-3.2819,-3.2818,-3.2979,-3.2822,-3.2822,-3.2822,-3.2821,0,-3.2905,-3.2941,-3.2889,-3.291,-3.295,-3.2904,-3.2945,-3.2928,-3.2915,-3.2933,-3.2881,-3.2899,-3.2848,-3.2861,-3.2832,-3.2867,-3.2868,-3.2855,-3.2847,-3.2859,-3.2861,-3.2861,-3.2853,-3.2826,-3.2825,-3.2824,-3.2823,0,-3.3036,-3.3002,-3.3037,-3.3009,-3.3003,-3.3034,-3.3009,-3.3029,-3.3005,-3.3029,-3.3032,-3.2994,-3.3007,-3.297,-3.2976,-3.2957,-3.3009,-3.2989,-3.3013,-3.3007,-3.3058,-3.3054,-3.3224,-3.3245,-3.3075,-3.3077,-3.3078,0,-3.3111,-3.3138,-3.3114,-3.3123,-3.3115,-3.313,-3.3134,-3.3091,-3.3097,-3.3087,-3.3108,-3.3117,-3.3121,-3.3145,-3.3118,-3.3124,-3.3104,-3.3164,-3.3104,-3.3117,-3.3106,-3.3104,-3.3107,-3.3176,-3.3178,-3.3179,-3.3181,0,-3.3248,-3.3231,-3.3239,-3.3243,-3.325,-3.3251,-3.3247,-3.3258,-3.3212,-3.3222,-3.3235,-3.3239,-3.3247,-3.3257,-3.3258,-3.3246,-3.3207,-3.32,-3.3211,-3.3224,-3.3238,-3.3232,-3.3047,-3.3196,-3.3194,-3.3193,-3.3192,-3.3192,-3.3353,-3.3375,-3.3363,-3.3375,-3.3368,-3.3368,-3.3385,-3.3365,-3.3375,-3.3379,-3.3353,-3.3372,-3.3361,-3.3357,-3.3351,-3.3366,-3.3338,-3.3355,-3.3359,-3.3364,-3.3372,-3.3236,-3.3366,-3.3365,-3.3365,-3.3364,-3.3364,0,-3.3488,-3.3478,-3.349,-3.3488,-3.3498,-3.3461,-3.3457,-3.3467,-3.3485,-3.3478,-3.3485,-3.3502,-3.3512,-3.3487,-3.3494,-3.3511,-3.3493,-3.3514,-3.3512,-3.3511,-3.3396,-3.3386,-3.3529,-3.3529,-3.3529,-3.3529,-3.3528,-3.3528,-3.356,-3.3596,-3.3578,-3.3611,-3.36,-3.3619,-3.362,-3.362,-3.3614,-3.3635,-3.3644,-3.3628,-3.3615,-3.3621,-3.3629,-3.3622,-3.3627,-3.3655,-3.3641,-3.3534,-3.3518,-3.3503,-3.3493,-3.3656,-3.3656,-3.3754,-3.3755,-3.3756]},{"header":{"parameterUnit":"m.s-1","parameterCategory":1,"la1":30.2991,"la2":30.254,"lo1":-89.0895,"lo2":-89.0444,"dy":0.0017,"dx":0.0017,"nx":28,"ny":28,"refTime":"2024-10-02T03:00:00:Z","depth":0,"parameterNumber":3,"parameterNumberName":"V-component_of_WINDS"},"data":[0,0,0,0,0,0,0,0,0,0,0,0,0,0,0,0,0,0,0,0,0,0,0,0,0,0,0,0,0,0,0,0,0,0,0,0,0,0,0,0,0,0,0,0,0,0,0,0,0,0,0,0,0,0,0,0,0,0,-1.372,-1.372,0,-1.375,-1.375,-1.3751,-1.3733,-1.3732,-1.3731,-1.373,-1.3762,-1.3764,-1.3765,0,0,0,0,0,0,0,0,0,0,0,0,0,-1.3646,-1.3647,-1.372,-1.372,-1.372,-1.375,-1.375,-1.3751,-1.3733,-1.3732,-1.3731,-1.373,-1.3762,-1.3764,-1.3766,0,0,0,0,0,0,0,0,0,0,0,0,0,-1.3677,-1.3648,-1.3719,-1.3715,-1.3715,-1.375,-1.375,-1.3751,-1.3733,-1.3732,-1.3731,-1.3729,-1.3761,-1.3763,-1.3766,-1.3807,0,0,-1.3773,-1.3775,0,0,0,0,0,0,0,0,-1.3675,-1.368,-1.3715,-1.3715,-1.3715,-1.3736,-1.3736,-1.377,-1.3734,-1.3726,-1.373,-1.3729,-1.3755,-1.3758,-1.3766,-1.3809,-1.381,-1.3774,-1.3775,-1.3776,-1.3777,0,0,0,0,0,0,0,-1.3673,-1.3678,-1.3732,-1.3716,-1.3716,-1.3711,-1.3714,-1.3742,-1.3747,-1.3727,-1.3726,-1.3729,-1.3754,-1.3764,-1.3767,-1.381,-1.3774,-1.3776,-1.3777,-1.3778,-1.3887,-1.3888,0,0,0,0,0,0,-1.3671,-1.3677,-1.3731,-1.3732,-1.3692,-1.3714,-1.3717,-1.3731,-1.3747,-1.3748,-1.373,-1.3728,-1.376,-1.3764,-1.3768,-1.3816,-1.3776,-1.3779,-1.378,-1.3885,-1.3887,-1.3889,0,0,0,0,0,0,-1.367,-1.3676,-1.3729,-1.3704,-1.3711,-1.3716,-1.3732,-1.3732,-1.3741,-1.375,-1.3751,-1.3739,-1.3759,-1.3764,-1.3797,-1.3817,-1.378,-1.3782,-1.3884,-1.3886,-1.3888,-1.3915,0,0,0,0,0,0,-1.3668,-1.3676,-1.3692,-1.3705,-1.3712,-1.3758,-1.3733,-1.3734,-1.3746,-1.3743,-1.3758,-1.3759,-1.3759,-1.3793,-1.38,-1.382,-1.3784,-1.3882,-1.3885,-1.3887,-1.3912,-1.3917,-1.3922,0,0,0,0,0,-1.3665,-1.3699,-1.3693,-1.3699,-1.3732,-1.376,-1.3764,-1.3762,-1.3747,-1.3763,-1.3768,-1.3759,-1.3814,-1.3797,-1.3804,-1.3825,-1.3881,-1.3884,-1.3887,-1.391,-1.3916,-1.3922,0,0,0,0,0,0,-1.3689,-1.37,-1.3694,-1.3733,-1.3745,-1.3757,-1.3777,-1.3769,-1.3787,-1.3784,-1.3781,-1.3785,-1.3819,-1.3825,-1.3806,-1.3865,-1.3845,-1.385,-1.386,-1.3866,-1.3871,-1.3869,-1.3786,0,0,0,0,0,-1.3698,-1.372,-1.3729,-1.3762,-1.3768,-1.3771,-1.3783,-1.3781,-1.3794,-1.3799,-1.3807,-1.382,-1.384,-1.3853,-1.3873,-1.3912,-1.3915,-1.393,-1.3935,-1.3939,-1.3944,-1.3964,-1.3971,-1.3899,-1.3899,-1.3899,0,0,-1.3719,-1.3727,-1.3741,-1.3767,-1.3776,-1.3798,-1.3776,-1.3801,-1.3817,-1.3803,-1.3834,-1.384,-1.3854,-1.3891,-1.3907,-1.3897,-1.3964,-1.3943,-1.3947,-1.3949,-1.3968,-1.3975,-1.3981,-1.3901,-1.3901,-1.39,0,0,-1.3766,-1.3776,-1.3804,-1.3813,-1.3828,-1.3829,-1.3836,-1.3848,-1.3851,-1.3882,-1.3872,-1.3891,-1.3926,-1.3936,-1.3946,-1.3996,-1.3988,-1.4003,-1.4029,-1.4049,-1.4055,-1.406,-1.4077,-1.4083,-1.4007,-1.4007,-1.4007,0,-1.379,-1.3823,-1.3819,-1.3844,-1.3855,-1.3843,-1.3871,-1.3881,-1.3901,-1.3908,-1.3897,-1.3939,-1.3948,-1.3986,-1.3998,-1.4007,-1.4014,-1.4001,-1.4054,-1.4059,-1.4064,-1.408,-1.4087,-1.4008,-1.4008,-1.4008,-1.4008,0,-1.385,-1.3873,-1.3894,-1.3913,-1.3926,-1.3953,-1.3953,-1.3967,-1.3963,-1.3965,-1.3996,-1.4006,-1.4027,-1.4035,-1.4032,-1.4073,-1.4066,-1.4054,-1.4034,-1.4072,-1.4088,-1.4094,-1.4011,-1.401,-1.401,-1.4009,0,0,-1.3915,-1.3931,-1.3938,-1.3946,-1.396,-1.3978,-1.4003,-1.4022,-1.4034,-1.4048,-1.4069,-1.4098,-1.4087,-1.4098,-1.4095,-1.4113,-1.4151,-1.4099,-1.4099,-1.4108,-1.4195,-1.4204,-1.4212,-1.4145,-1.4146,-1.4147,-1.4194,0,-1.3964,-1.4008,-1.4005,-1.4047,-1.4067,-1.4055,-1.4077,-1.4088,-1.409,-1.4108,-1.4111,-1.4131,-1.4115,-1.4122,-1.4138,-1.4143,-1.4168,-1.4139,-1.4164,-1.4165,-1.4161,-1.422,-1.4229,-1.4273,-1.42,-1.4201,-1.4202,0,-1.4027,-1.4042,-1.4086,-1.4095,-1.4104,-1.4124,-1.414,-1.4157,-1.4169,-1.4169,-1.4181,-1.4175,-1.42,-1.4178,-1.4212,-1.4193,-1.4202,-1.4206,-1.4207,-1.421,-1.4186,-1.4224,-1.4287,-1.4294,-1.4211,-1.4211,-1.421,0,-1.407,-1.4101,-1.413,-1.4138,-1.415,-1.4164,-1.417,-1.418,-1.4191,-1.4206,-1.4213,-1.423,-1.424,-1.4253,-1.4252,-1.4236,-1.4286,-1.4265,-1.4287,-1.4287,-1.4299,-1.4298,-1.4365,-1.4305,-1.4305,-1.4305,-1.4305,0,-1.4124,-1.4151,-1.4149,-1.4168,-1.4197,-1.4193,-1.4222,-1.4227,-1.4235,-1.4254,-1.4244,-1.4262,-1.4259,-1.4276,-1.4275,-1.4303,-1.4308,-1.4309,-1.4308,-1.431,-1.431,-1.4317,-1.4313,-1.4307,-1.4306,-1.4306,-1.4306,0,-1.4177,-1.4177,-1.4209,-1.4217,-1.422,-1.4241,-1.4248,-1.4265,-1.4267,-1.429,-1.4295,-1.4298,-1.4317,-1.4317,-1.434,-1.4339,-1.4373,-1.4369,-1.4369,-1.4369,-1.4391,-1.4389,-1.4465,-1.4474,-1.4408,-1.4409,-1.4409,0,-1.4212,-1.4233,-1.4243,-1.4254,-1.4261,-1.428,-1.4291,-1.4287,-1.4299,-1.4313,-1.4328,-1.4347,-1.4362,-1.4394,-1.4398,-1.4415,-1.4411,-1.4436,-1.4414,-1.4414,-1.4411,-1.441,-1.4411,-1.4441,-1.4442,-1.4442,-1.4443,0,-1.4275,-1.4273,-1.429,-1.4306,-1.4319,-1.4332,-1.4343,-1.4353,-1.4351,-1.4364,-1.4384,-1.4396,-1.4418,-1.4437,-1.4453,-1.4459,-1.445,-1.445,-1.4456,-1.4458,-1.4457,-1.4457,-1.4381,-1.4448,-1.4448,-1.4447,-1.4447,-1.4447,-1.432,-1.4337,-1.4346,-1.4364,-1.4372,-1.4383,-1.4399,-1.4402,-1.4418,-1.4436,-1.4433,-1.4455,-1.4465,-1.4485,-1.4492,-1.4509,-1.45,-1.4509,-1.4511,-1.4514,-1.4516,-1.4454,-1.4512,-1.4512,-1.4512,-1.4511,-1.4511,0,-1.4381,-1.4386,-1.4403,-1.4419,-1.4433,-1.4423,-1.4435,-1.4447,-1.4467,-1.4476,-1.4491,-1.4513,-1.4531,-1.4535,-1.4552,-1.4564,-1.4561,-1.4569,-1.4568,-1.4569,-1.4523,-1.4516,-1.4571,-1.4571,-1.4571,-1.4571,-1.4571,-1.4571,-1.4415,-1.4443,-1.4442,-1.4474,-1.4478,-1.45,-1.4507,-1.4517,-1.4524,-1.4549,-1.4564,-1.4566,-1.4573,-1.459,-1.4606,-1.4606,-1.4613,-1.4623,-1.4622,-1.4579,-1.4573,-1.4567,-1.456,-1.4624,-1.4624,-1.4666,-1.4667,-1.4667]}]]